Theta_e
336 341 353 355 359 360 362 359 354 359 358 352 351 353 356 357 358 354 351 350 347 347 347 347 352 351 351 349 346 347 348 346 346 350 353 353 351 346 347 349 347 343 343 341 343 344 345 342 343
345 348 354 355 360 360 359 355 358 356 354 352 353 352 354 359 352 351 350 350 346 345 346 347 351 352 349 347 349 349 352 352 349 352 350 351 350 346 344 340 340 341 340 341 341 346 343 346 343
351 353 350 358 359 363 363 356 356 354 352 352 355 352 352 355 351 349 350 349 346 346 346 348 350 350 353 351 352 351 352 352 352 348 346 346 345 342 343 341 339 342 342 343 342 341 341 342 343
349 352 349 356 358 360 356 358 353 355 354 353 354 357 350 350 349 350 350 349 347 349 349 350 351 352 352 351 351 353 353 352 352 353 348 347 342 342 343 344 343 342 341 342 342 341 343 344 346
351 350 355 359 356 356 355 355 353 355 354 355 353 356 353 348 349 350 348 349 348 349 348 351 351 352 351 353 353 353 352 352 350 346 344 343 341 344 343 343 344 344 350 351 349 345 345 351 348
353 346 354 357 360 359 359 356 352 354 355 354 354 354 351 347 350 349 348 349 349 349 349 349 351 353 353 354 353 353 352 352 344 345 342 341 342 342 345 346 351 351 351 351 350 346 347 345 346
355 348 352 358 359 364 361 354 355 353 354 354 351 355 348 347 349 348 346 347 346 347 347 348 350 353 353 353 353 353 351 347 347 347 344 342 341 340 344 350 349 349 349 348 348 344 346 344 342
351 346 351 354 358 358 354 355 351 354 354 350 349 355 351 345 348 349 350 350 349 346 345 345 347 351 352 351 353 353 349 350 352 350 346 343 341 342 344 347 351 350 350 349 349 347 346 343 341
346 348 351 355 357 356 355 354 355 353 354 352 350 349 347 346 347 349 351 351 349 347 346 345 346 349 351 352 352 352 350 351 352 350 343 343 342 343 344 347 347 349 351 349 349 349 345 342 341
346 345 349 352 352 356 356 354 355 356 356 354 351 347 347 349 349 350 350 351 351 348 349 346 346 344 351 351 351 351 351 350 350 349 344 340 340 345 346 347 344 345 346 343 345 348 349 345 339
347 347 350 353 351 355 356 355 353 353 355 354 354 350 347 348 349 349 350 351 351 350 350 346 345 345 346 347 351 350 348 347 349 346 343 340 338 342 344 347 344 345 342 343 347 346 345 345 343
349 349 348 354 353 353 356 353 352 351 350 350 349 348 347 347 346 347 347 348 350 350 349 349 348 347 347 346 349 350 346 346 348 344 342 344 344 345 346 346 346 345 344 345 344 345 347 346 345
348 355 347 346 347 351 352 354 352 351 350 350 349 348 348 347 347 347 347 348 348 348 349 350 350 349 348 348 348 349 344 344 347 346 342 341 343 346 346 343 345 345 341 343 344 346 344 345 346
351 353 348 347 347 353 355 354 350 348 349 351 350 349 348 347 347 347 347 348 348 348 348 348 350 348 348 348 348 348 344 345 347 345 340 342 343 346 346 340 344 345 344 345 346 347 345 341 345
346 348 343 343 347 350 353 356 353 348 347 348 348 346 348 347 348 346 346 348 348 348 348 349 348 349 349 349 348 348 345 346 347 346 342 343 346 343 341 342 344 344 345 345 346 347 346 338 340
348 344 347 343 348 347 352 355 351 349 347 347 346 345 345 346 348 347 346 347 348 348 348 348 349 349 349 349 350 349 347 347 347 342 342 343 341 342 342 344 346 346 347 346 347 348 338 340 345
327 337 347 346 348 350 353 355 349 349 346 345 344 343 344 347 347 346 347 347 348 348 348 349 348 348 348 348 347 348 347 346 346 341 342 340 344 345 343 344 345 346 347 344 348 345 342 343 345
329 330 335 344 349 352 355 355 351 349 346 345 343 343 344 346 346 346 346 346 347 347 347 348 349 348 348 348 348 347 347 344 343 342 342 343 344 345 341 343 341 345 341 342 347 347 346 346 346
324 325 327 327 334 352 356 355 351 352 349 349 347 344 344 342 341 344 346 346 347 347 348 348 347 346 346 347 347 346 345 345 344 345 342 347 343 340 339 340 343 346 346 346 347 348 347 348 346
324 325 326 327 347 350 352 356 350 352 351 350 347 344 342 343 340 343 346 346 346 347 348 348 347 345 345 346 346 345 345 344 344 344 348 345 343 340 340 337 340 346 346 346 348 349 342 345 343
324 324 325 326 335 349 343 340 352 351 349 349 347 344 343 342 340 342 343 345 346 346 347 348 345 345 344 344 344 344 345 345 345 345 344 343 344 340 339 338 342 343 346 347 349 350 345 338 337
322 325 325 326 327 337 336 337 330 350 350 349 347 345 343 342 340 342 343 345 347 346 346 347 345 344 344 344 345 344 345 345 345 343 342 342 345 347 344 340 337 339 344 349 350 349 342 337 337
324 324 325 326 328 327 328 329 327 345 350 351 347 341 343 341 340 343 343 345 347 347 347 346 345 344 343 344 345 344 344 345 344 344 345 343 341 348 346 339 344 342 348 350 348 350 346 343 343
326 323 320 322 322 324 324 330 329 341 348 349 349 343 340 342 340 342 343 344 346 347 347 346 345 344 341 343 341 343 344 345 343 343 345 343 347 348 348 344 345 349 349 352 351 349 349 349 348
320 319 322 323 322 323 322 332 330 330 337 343 344 343 342 343 341 341 343 343 346 347 347 346 345 343 340 341 341 342 344 345 342 341 343 345 347 348 350 351 349 348 351 352 353 351 351 349 347
325 319 321 323 324 323 324 331 326 330 334 337 340 341 344 342 340 341 342 344 346 347 347 346 344 341 339 338 338 341 342 342 343 346 345 345 347 346 348 348 349 350 350 352 352 353 351 347 351
324 319 318 316 317 320 320 323 327 336 339 339 339 342 342 341 341 341 340 343 345 348 347 346 344 341 341 340 340 341 342 345 345 347 346 346 345 346 348 348 346 349 350 350 349 348 350 349 351
322 318 320 314 322 323 323 326 326 336 338 336 338 342 344 341 340 342 341 344 345 347 347 346 345 343 343 343 344 345 345 346 348 346 346 346 347 347 348 349 349 348 349 348 348 350 350 350 349
322 319 314 313 316 319 321 323 325 333 337 338 338 337 342 337 339 339 343 343 346 346 348 347 346 345 344 346 348 346 346 346 347 345 346 345 345 347 346 346 348 350 348 348 349 349 349 348 348
320 318 313 316 317 317 317 320 323 325 333 340 338 338 338 335 338 339 343 343 346 346 347 348 348 346 346 345 347 348 347 346 346 344 346 345 348 347 346 347 349 349 348 348 348 348 348 350 351
Wind_Speed
5 5 5 1 5 4 1 3 3 7 8 6 1 3 4 4 1 3 5 19 25 26 23 19 15 15 14 12 11 11 14 14 15 14 14 14 14 16 19 17 15 14 11 10 11 9 9 6 3
6 4 1 1 5 3 3 2 10 8 6 5 4 4 4 2 3 8 14 15 26 26 23 18 16 15 15 14 12 12 12 14 14 14 13 13 11 12 13 15 13 12 11 10 8 8 8 6 4
6 3 3 3 3 3 4 6 9 7 10 5 3 4 3 3 8 9 7 25 27 25 22 19 18 17 15 14 12 12 12 11 13 13 11 10 9 10 11 13 13 11 11 10 9 8 8 7 4
6 4 4 4 3 1 3 7 11 6 5 3 8 5 4 6 14 12 26 28 27 24 21 19 17 16 15 14 12 11 11 11 11 11 10 8 6 8 10 11 11 11 10 8 8 7 7 4 3
3 2 4 3 3 2 4 4 4 8 3 8 2 3 3 5 11 24 29 28 27 24 22 19 17 16 15 13 12 11 10 10 9 8 8 5 5 7 7 8 9 10 9 8 7 7 5 4 4
3 3 4 2 2 4 4 6 4 5 3 8 6 4 1 12 28 29 30 28 26 26 23 21 18 17 15 13 11 10 9 8 8 7 8 7 8 7 6 8 8 9 8 8 7 7 5 5 2
1 3 1 4 2 2 4 6 4 3 9 4 8 4 2 9 21 29 28 27 27 25 24 22 21 17 15 13 11 10 9 9 9 6 7 9 11 9 7 6 6 6 8 7 7 7 5 2 3
3 3 2 2 1 4 2 3 2 3 1 10 10 5 5 10 22 23 25 26 25 25 23 22 20 18 16 14 12 11 9 8 8 7 9 9 9 9 5 4 4 5 7 6 7 7 5 3 4
4 2 1 2 0 4 1 1 4 4 9 3 2 5 10 24 25 24 21 21 23 23 22 20 19 18 17 16 13 10 9 8 8 9 10 9 9 7 6 5 4 6 7 7 7 8 8 7 7
3 2 4 3 3 4 2 3 5 4 2 4 6 10 23 24 24 21 19 18 21 25 24 23 21 19 18 16 14 13 11 10 9 12 10 9 9 7 4 5 5 5 5 6 5 6 6 6 8
5 3 5 2 4 3 5 1 1 10 2 4 12 14 14 21 19 19 21 25 31 26 24 23 21 20 19 18 17 14 12 11 11 11 9 9 8 6 5 4 7 7 6 6 7 6 6 8 8
4 4 4 2 1 3 6 4 2 5 5 6 11 14 13 13 13 18 18 19 21 23 25 24 22 20 20 18 17 15 13 12 12 11 10 9 7 5 4 4 8 8 4 4 5 7 9 9 9
3 3 3 2 2 2 7 5 3 5 5 10 12 13 12 10 11 13 18 24 25 24 24 24 23 22 20 20 18 17 15 14 12 11 10 9 7 4 3 3 9 7 2 5 6 6 7 7 11
1 2 2 3 3 3 4 2 1 3 6 9 11 12 13 12 14 14 17 21 23 24 24 22 24 20 19 20 19 19 17 15 13 11 11 9 6 4 3 6 6 6 2 2 2 1 4 4 6
5 0 4 6 3 4 6 4 8 5 10 10 13 9 10 11 16 18 24 24 27 25 23 22 21 20 21 21 17 19 17 16 15 11 10 10 7 5 7 5 3 2 0 2 1 2 5 4 8
1 3 3 2 4 4 7 8 10 8 12 12 12 12 12 14 20 21 23 25 25 22 23 20 21 20 20 21 20 19 17 15 15 12 13 13 8 6 9 5 1 1 3 3 2 2 5 5 9
4 3 3 7 11 4 6 7 6 8 11 11 11 11 8 11 15 22 27 27 26 24 22 21 19 17 18 19 20 19 17 15 15 13 14 14 9 7 7 3 4 5 6 3 2 6 1 4 8
3 5 4 7 5 6 8 17 3 6 9 11 8 9 10 15 16 23 26 26 27 26 23 21 17 15 16 18 18 18 16 13 16 15 15 13 10 9 9 6 4 5 3 2 2 4 2 3 3
3 4 8 16 10 6 15 16 8 8 7 8 8 8 8 12 10 21 22 24 26 26 26 23 18 16 19 20 22 19 17 14 17 16 16 12 12 12 12 2 9 11 6 4 2 3 4 8 7
5 7 17 12 5 10 3 16 6 10 13 15 10 8 8 6 9 13 21 21 27 29 29 25 20 19 21 23 23 20 19 16 15 16 15 13 15 16 9 6 10 12 8 5 3 5 8 4 6
10 6 13 8 4 3 3 7 6 7 1 5 6 6 6 11 9 12 16 23 24 28 32 28 23 21 21 22 20 19 17 16 15 15 14 15 14 17 13 7 10 9 7 6 3 3 7 5 2
8 15 14 6 2 4 5 6 6 5 4 6 8 9 11 10 7 11 17 22 24 28 30 28 24 22 23 23 21 24 20 16 16 19 17 15 14 13 16 13 11 9 7 8 8 6 7 4 10
11 6 5 4 3 2 2 1 7 3 6 14 12 11 11 12 12 16 19 29 28 27 31 29 26 25 26 25 22 24 21 18 17 18 16 17 16 14 12 13 9 8 6 8 7 7 6 5 3
7 2 5 5 3 1 3 4 8 4 7 5 11 14 14 13 12 16 24 24 24 26 33 32 29 28 27 30 24 24 21 18 13 17 16 19 17 16 14 14 11 8 7 5 5 5 7 4 1
4 5 3 5 4 7 1 2 9 13 7 11 8 14 17 18 17 16 17 21 24 28 25 31 30 30 29 31 27 26 22 19 16 19 19 20 18 18 17 14 14 14 10 7 5 6 6 6 6
3 7 5 7 3 5 3 4 7 4 6 7 8 9 10 9 13 15 19 26 28 31 32 30 34 32 31 31 29 28 22 19 18 15 16 21 20 20 16 15 14 15 13 11 11 8 6 6 6
4 5 4 6 2 3 4 8 9 6 1 6 8 7 12 15 17 18 18 28 30 32 33 35 37 34 35 33 31 29 26 23 19 15 14 19 20 16 16 19 18 17 16 14 12 11 9 7 8
7 6 2 3 3 4 4 5 5 7 8 8 10 13 11 11 13 14 18 27 32 33 33 32 38 39 39 36 33 30 28 25 22 17 15 12 16 15 14 15 22 22 21 16 13 12 11 11 8
1 3 4 5 5 5 2 6 8 9 10 10 10 11 14 11 11 13 16 24 27 27 28 31 34 32 34 36 35 32 30 28 24 20 17 18 15 16 14 13 13 22 22 18 15 14 13 13 12
1 3 5 5 7 4 5 6 4 8 11 7 9 10 8 9 9 12 14 21 27 33 33 34 31 32 35 37 36 34 31 30 27 25 20 17 18 17 15 13 12 19 19 18 17 17 16 17 17
Wind_Direction
316 321 319 19 66 57 75 200 248 294 346 336 87 117 126 39 92 202 166 161 163 162 163 161 159 153 154 152 140 132 131 133 135 136 135 138 140 151 151 150 157 154 158 175 187 185 181 191 213
359 359 348 76 76 62 285 335 250 247 254 188 75 85 49 81 82 115 127 175 164 160 161 162 162 155 158 159 149 137 137 140 140 137 138 139 143 143 154 163 168 169 174 185 182 189 202 224 235
5 11 59 84 119 147 166 226 240 279 257 282 105 65 98 124 120 140 166 164 164 164 165 164 166 162 162 159 154 149 144 143 143 142 147 142 140 147 170 164 171 167 184 188 196 202 211 223 211
6 12 26 68 27 8 200 213 222 274 247 240 108 79 83 170 153 162 155 164 165 164 166 163 166 165 164 163 162 158 152 151 148 152 157 156 146 187 180 167 164 170 172 178 195 205 212 208 184
41 65 52 85 330 247 236 256 197 287 86 134 125 123 61 95 155 155 157 164 165 165 167 165 168 167 167 167 163 159 153 151 151 160 155 142 141 160 159 148 157 154 152 168 180 200 183 169 157
359 80 58 45 188 277 269 232 202 247 93 132 119 87 84 146 144 156 163 166 167 165 168 167 168 170 171 168 169 165 155 158 155 160 165 159 143 129 154 151 154 147 153 163 186 196 187 180 199
24 93 236 165 239 227 244 161 189 238 160 147 132 98 83 150 153 159 168 171 170 170 172 174 176 176 177 170 172 170 168 168 169 177 172 157 146 141 157 160 157 162 165 171 193 196 193 190 181
160 86 160 299 169 268 234 167 102 54 126 109 136 169 177 187 163 161 170 174 176 177 180 182 181 177 179 172 176 172 165 175 166 163 150 148 137 147 165 165 164 176 172 177 203 209 211 181 205
125 65 255 240 227 259 247 204 42 20 126 77 241 145 155 161 165 156 165 176 177 179 183 184 184 187 180 175 173 171 164 175 160 148 144 154 150 154 166 171 186 188 173 170 203 214 217 208 224
149 121 212 235 222 240 177 165 142 80 49 69 79 88 123 142 154 160 165 176 184 184 188 188 190 190 185 179 173 179 172 182 167 160 158 161 161 160 179 192 178 183 165 161 197 210 217 220 233
207 213 186 213 239 183 152 126 34 124 235 230 159 149 145 150 161 171 179 185 187 191 189 192 196 194 193 186 182 184 181 184 175 168 161 171 170 183 213 201 193 185 159 190 202 201 211 221 219
135 216 201 181 52 141 153 159 128 185 208 183 169 158 151 167 175 181 179 181 195 195 197 195 196 196 198 192 190 188 186 187 178 178 179 178 176 191 192 207 185 181 181 226 241 231 215 216 217
124 210 350 348 327 141 136 204 217 220 196 165 157 163 168 176 187 197 190 193 198 200 202 204 200 203 203 194 191 190 190 191 183 183 189 187 184 197 253 185 203 201 189 192 251 245 209 202 218
185 68 339 276 255 136 141 252 350 185 155 158 168 183 181 184 186 195 204 201 199 202 202 205 203 216 209 205 198 194 195 192 188 183 182 191 192 216 271 188 165 179 191 155 232 309 140 184 197
116 242 276 223 236 195 127 277 238 171 163 174 181 187 195 197 186 194 206 206 207 206 206 202 205 203 207 211 207 197 197 198 192 193 183 189 194 207 149 177 139 194 65 196 263 182 207 232 194
267 55 351 232 198 216 148 270 240 194 161 191 198 203 204 207 201 204 205 208 205 203 200 201 202 202 206 208 208 204 206 200 192 187 201 193 203 202 173 138 344 154 127 127 141 176 154 196 178
338 259 256 313 200 156 176 262 268 175 184 206 199 211 202 192 199 196 206 210 202 200 198 193 197 199 201 209 210 205 195 195 189 193 191 199 201 200 195 93 108 113 139 119 156 173 149 177 164
255 310 273 244 232 203 209 253 277 212 168 212 211 213 228 193 195 193 193 200 203 198 197 194 194 196 195 195 189 191 188 190 193 189 189 194 197 190 179 97 89 109 118 148 191 185 182 212 153
266 256 257 284 270 162 211 236 236 217 197 214 224 215 200 178 182 184 185 188 193 195 195 197 189 192 187 182 178 180 187 185 183 189 194 200 197 187 173 212 184 188 175 136 110 121 140 168 184
242 275 282 277 210 178 145 247 237 206 216 205 204 208 197 141 144 163 172 178 190 195 193 195 192 190 187 184 183 186 182 187 189 189 196 201 194 178 199 207 175 170 179 152 150 182 149 145 174
283 221 272 238 337 201 109 295 252 239 45 176 207 200 196 189 162 165 177 176 183 187 194 194 193 191 189 184 181 179 182 190 196 197 204 204 202 198 208 185 167 158 163 152 121 167 176 162 181
265 277 256 256 116 222 142 272 277 281 265 212 209 206 203 199 170 170 176 183 181 190 195 194 195 192 186 182 183 179 182 186 199 205 211 211 209 205 221 214 190 165 161 148 126 141 170 194 135
238 283 260 266 169 46 243 49 269 3 264 232 208 212 205 195 181 181 186 188 181 184 188 196 197 192 186 187 186 185 192 196 190 200 208 212 217 216 212 192 190 189 186 159 153 154 161 175 188
267 295 35 43 71 23 273 133 288 226 222 251 191 197 202 197 192 190 189 182 180 175 188 196 195 193 188 193 193 193 195 202 203 203 207 204 214 212 208 212 216 206 214 193 178 194 188 197 143
87 61 329 336 356 238 34 114 241 263 248 239 175 195 197 195 188 176 179 180 177 180 179 188 192 192 190 197 200 200 202 204 210 212 211 210 215 221 217 228 234 229 232 228 220 203 209 218 211
217 156 162 228 214 256 309 256 267 323 282 192 179 192 168 170 187 186 184 182 179 178 181 184 191 193 194 197 204 202 207 210 202 210 212 210 216 219 225 234 239 235 230 234 226 219 231 249 227
277 228 208 108 25 49 258 292 317 331 143 175 147 158 168 183 177 182 181 185 183 181 183 182 189 194 197 197 205 207 205 208 212 215 222 222 212 219 234 240 235 232 228 229 231 234 239 238 237
165 168 72 16 166 244 280 281 241 303 262 237 162 198 194 190 185 183 177 183 185 183 184 183 190 194 200 198 204 210 208 209 209 216 220 206 204 216 225 228 235 235 225 226 234 237 243 249 246
165 239 47 121 131 176 193 264 214 229 237 236 232 211 201 189 171 183 187 180 179 177 182 184 190 194 198 203 207 213 215 212 216 223 227 224 217 221 231 241 248 218 216 228 233 238 245 250 251
123 86 137 123 262 173 161 267 268 255 261 226 235 224 213 221 162 179 185 163 170 178 186 187 187 189 200 204 208 212 216 219 222 222 222 212 218 221 228 228 215 209 220 229 243 241 242 249 250